World > North America > United States > Pennsylvania   City of Harrisburg, PA

Harrisburg, Pennsylvania Regional Weather

Lat: 40.28N, Lon: 76.88W
Wx Zone: PAZ057Web Search
Harrisburg Weather Warning NWS WEATHER ALERT FOR THE HARRISBURG, PA AREA - Issued: 411 AM EST Sat Feb 27 2021 Harrisburg Weather Warning  

Helpful Tip: Type the letters wx in the search engine next time you need to find us.

Feedback
Harrisburg Weather Map
UTC Time: 2/27/2021, 16:06
Your Time:

Harrisburg, PA Regional Weather

Expires:202102271600;;203368
ASUS41 KOKX 271514
RWROKX

Regional Weather Roundup
National Weather Service New York NY
1000 AM EST SAT FEB 27 2021

Note: "FAIR" indicates few or no clouds below 12,000 feet with no
significant weather and/or obstructions to visibility.


PAZ047>061-062-071-271600-
Eastern Pennsylvania
  
CITY           SKY/WX    TMP DP  RH WIND       PRES   REMARKS
Philadelphia   CLOUDY    43  42  97 N8        30.08  FOG              
Allentown      MIX PCPN  35  34  96 NE7       30.08F FOG     WCI  29  
Scranton       FOG       37  34  89 N5        30.04F VSB 3/4 WCI  33  
$$


SKY/WX - Weather  TMP - Temperature  DP - Dew Point  RH - Relative Humidity
WIND - Wind Direction/Speed PRES - Barometric Pressure VSB - Visibility
WCI - Wind Chill Index E13G22 Wind - East Wind 13 mph/Gusts of 22 mph